Airport Information

KAST - Astoria Regional Airport

KAST 191913Z AUTO 28010KT 10SM SCT027 BKN036 BKN044 16/10 A3028 RMK AO2 T01610100


  • General Information

  • Coordinates: N 46°9'28"/ W 123°52'43"
  • Location: N/A
  • Surveyed Elevation: 15 MSL

Operations

Flow Name Active Runways Conditions

Green background denotes normal operations.


Common Frequencies

Callsign Frequency Position Name

More at the Document Center


Charts